Torna al catalogo

USA 564

AttivoMilitareVLEO
NORAD 65710·PAYLOAD·🇺🇸 United States

Lanciato Sep 22, 2025 da Vandenberg Space Force Base

Loading…

Prossimi Passaggi (prossime 24 ore)

TLE

ObsoletoSource: Mike McCants

Epoca: Aug 10, 2026, 21:26 UTC

1 65710U 25213G   26222.89346593 0.00000000  00000-0  00000-0 0    06
2 65710  70.0214 249.6989 0003000  49.0480 310.9519 14.96713500    04

Traccia USA 564 in tempo reale con AllMySat

Download on the App Store